[[{"header":{"parameterUnit":"m.s-1","parameterCategory":1,"la1":30.2991,"la2":30.254,"lo1":-89.0895,"lo2":-89.0444,"dy":0.0017,"dx":0.0017,"nx":28,"ny":28,"refTime":"2024-04-16T09:00:00:Z","depth":0,"parameterNumber":2,"parameterNumberName":"U-component_of_WINDS"},"data":[0,0,0,0,0,0,0,0,0,0,0,0,0,0,0,0,0,0,0,0,0,0,0,0,0,0,0,0,0,0,0,0,0,0,0,0,0,0,0,0,0,0,0,0,0,0,0,0,0,0,0,0,0,0,0,0,0,0,-1.6246,-1.6246,0,-1.6188,-1.6187,-1.6186,-1.6145,-1.6145,-1.6144,-1.6144,-1.608,-1.6079,-1.6078,0,0,0,0,0,0,0,0,0,0,0,0,0,-1.6319,-1.6318,-1.6247,-1.6246,-1.6245,-1.6188,-1.6187,-1.6186,-1.6145,-1.6145,-1.6144,-1.6144,-1.6081,-1.6079,-1.6078,0,0,0,0,0,0,0,0,0,0,0,0,0,-1.6277,-1.6318,-1.6247,-1.6218,-1.6215,-1.6188,-1.6187,-1.6186,-1.6145,-1.6145,-1.6144,-1.6144,-1.6082,-1.6079,-1.6077,-1.6074,0,0,-1.6071,-1.607,0,0,0,0,0,0,0,0,-1.6279,-1.6274,-1.6223,-1.622,-1.6216,-1.6173,-1.6189,-1.6148,-1.6145,-1.6171,-1.6144,-1.6144,-1.6112,-1.6107,-1.6097,-1.6071,-1.6068,-1.6071,-1.6069,-1.6069,-1.6068,0,0,0,0,0,0,0,-1.6282,-1.6276,-1.6223,-1.6222,-1.6218,-1.6206,-1.62,-1.6181,-1.6145,-1.6169,-1.6166,-1.616,-1.611,-1.6099,-1.6095,-1.6067,-1.6071,-1.6069,-1.6068,-1.6067,-1.6034,-1.6034,0,0,0,0,0,0,-1.629,-1.6279,-1.6225,-1.6221,-1.6247,-1.6205,-1.6198,-1.6187,-1.6145,-1.6138,-1.616,-1.6158,-1.6103,-1.6098,-1.6093,-1.6085,-1.6069,-1.6067,-1.6065,-1.6033,-1.6034,-1.6034,0,0,0,0,0,0,-1.6292,-1.6286,-1.6227,-1.6249,-1.6241,-1.6205,-1.6193,-1.6187,-1.6176,-1.6138,-1.6131,-1.6156,-1.6102,-1.6096,-1.6079,-1.6082,-1.6066,-1.6064,-1.6033,-1.6033,-1.6034,-1.607,0,0,0,0,0,0,-1.6294,-1.6287,-1.6286,-1.625,-1.624,-1.6216,-1.6193,-1.6186,-1.6173,-1.6169,-1.6133,-1.6126,-1.6101,-1.6082,-1.6077,-1.6079,-1.6062,-1.6032,-1.6033,-1.6034,-1.6068,-1.6072,-1.6075,0,0,0,0,0,-1.6297,-1.6298,-1.6286,-1.628,-1.6239,-1.6216,-1.6211,-1.6183,-1.6173,-1.6172,-1.6147,-1.6127,-1.6083,-1.6081,-1.6074,-1.6076,-1.6032,-1.6033,-1.6034,-1.6067,-1.6071,-1.6075,0,0,0,0,0,0,-1.6334,-1.6293,-1.6279,-1.6269,-1.6246,-1.6209,-1.6206,-1.6188,-1.6168,-1.6165,-1.6131,-1.6123,-1.6109,-1.6091,-1.6089,-1.6069,-1.6055,-1.6054,-1.6082,-1.6086,-1.6089,-1.6093,-1.606,0,0,0,0,0,-1.6342,-1.6328,-1.6292,-1.6286,-1.6276,-1.6243,-1.6232,-1.6213,-1.6188,-1.6178,-1.6152,-1.6128,-1.6108,-1.6096,-1.6076,-1.6065,-1.6056,-1.6063,-1.6066,-1.6069,-1.6069,-1.6061,-1.6063,-1.6037,-1.6037,-1.6037,0,0,-1.6356,-1.6332,-1.6325,-1.6293,-1.6273,-1.6259,-1.6235,-1.6221,-1.621,-1.6175,-1.6158,-1.6139,-1.6109,-1.6095,-1.6087,-1.6079,-1.6074,-1.607,-1.6073,-1.6071,-1.6062,-1.6064,-1.6067,-1.6038,-1.6038,-1.6037,0,0,-1.6375,-1.6356,-1.6349,-1.633,-1.6301,-1.6279,-1.6277,-1.6242,-1.6228,-1.6211,-1.6184,-1.6169,-1.6137,-1.6116,-1.6101,-1.6112,-1.6092,-1.6106,-1.6122,-1.6115,-1.6117,-1.6119,-1.6121,-1.6123,-1.6106,-1.6106,-1.6106,0,-1.6397,-1.6375,-1.6347,-1.6334,-1.632,-1.629,-1.6281,-1.6263,-1.6229,-1.6219,-1.6211,-1.6168,-1.6146,-1.6127,-1.6129,-1.6119,-1.6114,-1.611,-1.6119,-1.6121,-1.6122,-1.6124,-1.6125,-1.6108,-1.6108,-1.6108,-1.6108,0,-1.6402,-1.6388,-1.6385,-1.6354,-1.6339,-1.6329,-1.6297,-1.6286,-1.6268,-1.6246,-1.6228,-1.62,-1.6173,-1.6167,-1.6149,-1.6145,-1.614,-1.6126,-1.611,-1.6126,-1.6128,-1.6129,-1.6111,-1.611,-1.611,-1.6109,0,0,-1.6444,-1.6397,-1.6396,-1.6381,-1.6346,-1.6334,-1.6321,-1.6296,-1.6286,-1.6263,-1.6251,-1.6223,-1.621,-1.6193,-1.6172,-1.6165,-1.6174,-1.6151,-1.615,-1.6156,-1.6166,-1.6177,-1.6179,-1.6161,-1.6161,-1.6161,-1.6169,0,-1.6457,-1.6435,-1.6408,-1.6394,-1.6379,-1.6349,-1.6338,-1.6315,-1.6294,-1.6277,-1.6254,-1.6235,-1.6219,-1.6208,-1.62,-1.6175,-1.6176,-1.6174,-1.6148,-1.6147,-1.6156,-1.618,-1.6191,-1.62,-1.6169,-1.6169,-1.6169,0,-1.647,-1.645,-1.6434,-1.64,-1.6393,-1.6383,-1.6358,-1.6342,-1.6315,-1.63,-1.6281,-1.6259,-1.6242,-1.6229,-1.6205,-1.6204,-1.6192,-1.6177,-1.6177,-1.6173,-1.6159,-1.6176,-1.6202,-1.6203,-1.617,-1.617,-1.617,0,-1.6502,-1.647,-1.6456,-1.6444,-1.6404,-1.6398,-1.6381,-1.6353,-1.6339,-1.6316,-1.6306,-1.6281,-1.6267,-1.6248,-1.6218,-1.6211,-1.6197,-1.6181,-1.6183,-1.6184,-1.6181,-1.6182,-1.6205,-1.6174,-1.6174,-1.6174,-1.6174,0,-1.6519,-1.6511,-1.647,-1.6461,-1.645,-1.6419,-1.6409,-1.6388,-1.6363,-1.6349,-1.6321,-1.6309,-1.6271,-1.6253,-1.623,-1.6213,-1.6207,-1.6193,-1.6187,-1.6196,-1.6197,-1.6187,-1.6185,-1.6174,-1.6174,-1.6174,-1.6174,0,-1.6553,-1.6525,-1.6508,-1.6471,-1.6462,-1.6455,-1.6423,-1.6413,-1.639,-1.6373,-1.6367,-1.6331,-1.6309,-1.6278,-1.6245,-1.6229,-1.6215,-1.6206,-1.6225,-1.6221,-1.6225,-1.6225,-1.6242,-1.6242,-1.6212,-1.6212,-1.6212,0,-1.6566,-1.6559,-1.6521,-1.6511,-1.6495,-1.6477,-1.6463,-1.6432,-1.6418,-1.6385,-1.6378,-1.6354,-1.6333,-1.6298,-1.6268,-1.6243,-1.6232,-1.624,-1.6228,-1.6236,-1.6231,-1.6232,-1.623,-1.6243,-1.6243,-1.6243,-1.6244,0,-1.6592,-1.6578,-1.656,-1.6536,-1.652,-1.65,-1.6478,-1.647,-1.6433,-1.6419,-1.6396,-1.638,-1.6347,-1.6322,-1.6293,-1.6273,-1.6252,-1.6248,-1.6247,-1.6255,-1.6266,-1.626,-1.6232,-1.6247,-1.6247,-1.6247,-1.6247,-1.6246,-1.6615,-1.6607,-1.6579,-1.6559,-1.6539,-1.6519,-1.6508,-1.6484,-1.6465,-1.6436,-1.6418,-1.6396,-1.6366,-1.6325,-1.6306,-1.6287,-1.6279,-1.6277,-1.6277,-1.6277,-1.628,-1.627,-1.6282,-1.6281,-1.6281,-1.6281,-1.6281,0,-1.6639,-1.662,-1.6602,-1.6572,-1.6556,-1.6538,-1.6513,-1.65,-1.6481,-1.6456,-1.6436,-1.6408,-1.6384,-1.6352,-1.6326,-1.6316,-1.6306,-1.631,-1.631,-1.6306,-1.6289,-1.6292,-1.6319,-1.6319,-1.6319,-1.6319,-1.6319,-1.6319,-1.665,-1.6635,-1.6618,-1.6592,-1.6572,-1.6551,-1.6538,-1.6519,-1.6498,-1.647,-1.645,-1.643,-1.6401,-1.6372,-1.6348,-1.6339,-1.633,-1.6338,-1.6326,-1.6311,-1.6307,-1.6304,-1.6307,-1.6336,-1.6336,-1.6344,-1.6344,-1.6344]},{"header":{"parameterUnit":"m.s-1","parameterCategory":1,"la1":30.2991,"la2":30.254,"lo1":-89.0895,"lo2":-89.0444,"dy":0.0017,"dx":0.0017,"nx":28,"ny":28,"refTime":"2024-04-16T09:00:00:Z","depth":0,"parameterNumber":3,"parameterNumberName":"V-component_of_WINDS"},"data":[0,0,0,0,0,0,0,0,0,0,0,0,0,0,0,0,0,0,0,0,0,0,0,0,0,0,0,0,0,0,0,0,0,0,0,0,0,0,0,0,0,0,0,0,0,0,0,0,0,0,0,0,0,0,0,0,0,0,2.2941,2.2942,0,2.3024,2.3025,2.3026,2.3023,2.3022,2.302,2.3019,2.3104,2.3108,2.3111,0,0,0,0,0,0,0,0,0,0,0,0,0,2.2779,2.2782,2.2941,2.2942,2.2943,2.3024,2.3025,2.3026,2.3023,2.3022,2.302,2.3019,2.3103,2.3107,2.3111,0,0,0,0,0,0,0,0,0,0,0,0,0,2.2855,2.2783,2.294,2.2951,2.2953,2.3024,2.3025,2.3026,2.3023,2.3022,2.302,2.3018,2.3102,2.3107,2.3112,2.3178,0,0,2.3127,2.3129,0,0,0,0,0,0,0,0,2.285,2.286,2.2948,2.295,2.2952,2.3011,2.2999,2.3077,2.3024,2.2996,2.3019,2.3017,2.3075,2.3082,2.3101,2.3181,2.3185,2.3127,2.3131,2.3133,2.3134,0,0,0,0,0,0,0,2.2845,2.2857,2.2974,2.295,2.2952,2.2952,2.296,2.3014,2.3044,2.2999,2.2999,2.3009,2.3075,2.3096,2.3103,2.3186,2.3127,2.3132,2.3135,2.3137,2.3326,2.3328,0,0,0,0,0,0,2.2838,2.2853,2.2971,2.2976,2.2896,2.2956,2.2966,2.2994,2.3044,2.305,2.301,2.3008,2.3089,2.3097,2.3106,2.3188,2.3133,2.3137,2.314,2.3324,2.3327,2.3329,0,0,0,0,0,0,2.2834,2.2848,2.2968,2.2914,2.293,2.2961,2.2992,2.2997,2.3018,2.3052,2.3058,2.3026,2.3088,2.3099,2.316,2.3191,2.314,2.3144,2.3322,2.3325,2.3328,2.3351,0,0,0,0,0,0,2.2829,2.2847,2.2872,2.2915,2.2932,2.302,2.2994,2.3,2.3026,2.3025,2.3069,2.3074,2.3087,2.3153,2.3165,2.3197,2.3148,2.3319,2.3323,2.3327,2.3347,2.3354,2.336,0,0,0,0,0,2.2824,2.2875,2.2873,2.2888,2.2964,2.3022,2.3032,2.3046,2.3029,2.3055,2.3077,2.3073,2.3185,2.3159,2.3173,2.3206,2.3318,2.3322,2.3327,2.3345,2.3353,2.336,0,0,0,0,0,0,2.2834,2.288,2.2879,2.2946,2.298,2.3021,2.3054,2.3054,2.3093,2.309,2.3106,2.3116,2.3177,2.3198,2.3168,2.3273,2.3249,2.3257,2.3258,2.3266,2.3272,2.3266,2.3152,0,0,0,0,0,2.2844,2.2887,2.2925,2.298,2.2997,2.3023,2.3048,2.3056,2.3092,2.3107,2.3133,2.3168,2.3212,2.324,2.3281,2.335,2.336,2.338,2.3386,2.3391,2.3398,2.3437,2.3447,2.3344,2.3344,2.3344,0,0,2.2865,2.2896,2.2922,2.2983,2.301,2.3055,2.3035,2.3082,2.3115,2.3114,2.3173,2.3194,2.3234,2.33,2.333,2.3319,2.3428,2.3397,2.3401,2.3405,2.3443,2.3452,2.3461,2.3347,2.3346,2.3346,0,0,2.2927,2.2954,2.3003,2.3032,2.3073,2.309,2.3102,2.3144,2.3158,2.3218,2.3218,2.3258,2.3332,2.3361,2.3385,2.3459,2.3457,2.3472,2.3505,2.3543,2.3551,2.3558,2.3586,2.3595,2.3478,2.3478,2.3478,0,2.2948,2.3015,2.3029,2.3077,2.3104,2.3105,2.3156,2.3182,2.3235,2.3254,2.3241,2.3335,2.3362,2.3435,2.3453,2.3472,2.3487,2.3467,2.3549,2.3556,2.3563,2.359,2.36,2.348,2.348,2.3479,2.3479,0,2.3039,2.3086,2.3121,2.3173,2.3204,2.3253,2.3275,2.3304,2.331,2.3328,2.339,2.3423,2.3472,2.3489,2.3495,2.3564,2.3556,2.3545,2.3521,2.3574,2.36,2.361,2.3482,2.3482,2.3481,2.3481,0,0,2.311,2.317,2.3183,2.3207,2.3254,2.329,2.3339,2.3387,2.3413,2.345,2.3493,2.3556,2.3547,2.3575,2.3583,2.3616,2.3675,2.3602,2.3604,2.3616,2.3754,2.3762,2.3774,2.3673,2.3675,2.3677,2.3751,0,2.3177,2.3265,2.328,2.3357,2.3401,2.3403,2.3446,2.3479,2.3498,2.3538,2.3558,2.3603,2.3588,2.3605,2.3637,2.366,2.3703,2.3655,2.3714,2.3715,2.3705,2.3787,2.3795,2.3864,2.3761,2.3762,2.3764,0,2.3268,2.3308,2.339,2.3432,2.3451,2.3489,2.3535,2.3573,2.3611,2.3623,2.3654,2.3659,2.3711,2.3685,2.3757,2.3724,2.3749,2.3764,2.3767,2.3774,2.3743,2.3797,2.3886,2.3897,2.3779,2.3778,2.3777,0,2.3313,2.3387,2.3446,2.3466,2.3516,2.3544,2.3566,2.3603,2.3631,2.3671,2.369,2.3736,2.3761,2.3796,2.3813,2.3792,2.3885,2.3859,2.3897,2.3896,2.3917,2.3915,2.4012,2.3931,2.393,2.393,2.393,0,2.3387,2.3437,2.3467,2.3503,2.356,2.3576,2.3632,2.3654,2.3686,2.3727,2.3731,2.3769,2.379,2.3831,2.3845,2.3904,2.3914,2.3926,2.3929,2.3926,2.3925,2.3943,2.3939,2.3933,2.3932,2.3932,2.3931,0,2.3447,2.3469,2.3533,2.3576,2.3588,2.3628,2.3664,2.37,2.3719,2.3771,2.3784,2.3813,2.3862,2.3883,2.3943,2.3952,2.402,2.4019,2.4007,2.4008,2.4045,2.4042,2.4158,2.4175,2.4081,2.4082,2.4082,0,2.3494,2.3533,2.358,2.3608,2.3631,2.3675,2.3705,2.3722,2.3753,2.38,2.383,2.388,2.392,2.3999,2.4025,2.4072,2.4073,2.411,2.408,2.4076,2.4075,2.4073,2.4078,2.4116,2.4117,2.4118,2.4118,0,2.3575,2.3584,2.3626,2.3673,2.3708,2.3745,2.3781,2.3804,2.3827,2.3862,2.3912,2.3944,2.4006,2.4055,2.4103,2.4126,2.4127,2.4128,2.4139,2.4137,2.4129,2.4136,2.4024,2.4125,2.4125,2.4124,2.4124,2.4123,2.363,2.3666,2.3705,2.3752,2.3781,2.3816,2.3852,2.3875,2.3918,2.397,2.3978,2.4032,2.407,2.4135,2.416,2.4203,2.4194,2.421,2.4214,2.4218,2.4221,2.4122,2.4212,2.4212,2.4211,2.4211,2.4211,0,2.3713,2.3738,2.3781,2.3833,2.387,2.3868,2.3908,2.394,2.3988,2.4024,2.4064,2.4123,2.4171,2.4201,2.425,2.4278,2.428,2.4291,2.4289,2.4295,2.4226,2.4212,2.4289,2.4289,2.4289,2.4289,2.4289,2.4289,2.376,2.382,2.3834,2.3909,2.3934,2.3988,2.4011,2.4043,2.4072,2.4138,2.4178,2.4198,2.4232,2.4283,2.4327,2.4335,2.4353,2.4365,2.4372,2.4308,2.43,2.4292,2.4279,2.4368,2.4369,2.4438,2.4438,2.4439]}]]